TimePDT,TemperatureF,Dew PointF,Humidity,Sea Level PressureIn,VisibilityMPH,Wind Direction,Wind SpeedMPH,Gust SpeedMPH,PrecipitationIn,Events,Conditions,WindDirDegrees,DateUTC
12:52 AM,34.0,27.0,75,30.23,-9999.0,SSE,5.8,-,N/A,,Unknown,150,2013-10-14 07:52:00
1:52 AM,32.0,26.1,79,30.24,-9999.0,Calm,Calm,-,N/A,,Unknown,0,2013-10-14 08:52:00
2:52 AM,30.0,25.0,82,30.24,-9999.0,SSE,3.5,-,N/A,,Unknown,150,2013-10-14 09:52:00
3:52 AM,28.0,24.1,85,30.25,-9999.0,SSW,4.6,-,N/A,,Unknown,200,2013-10-14 10:52:00
4:52 AM,28.0,24.1,85,30.27,-9999.0,SSW,5.8,-,N/A,,Unknown,200,2013-10-14 11:52:00
5:52 AM,30.0,25.0,82,30.29,-9999.0,SSE,6.9,-,N/A,,Unknown,160,2013-10-14 12:52:00
6:52 AM,34.0,28.0,79,30.31,-9999.0,SE,3.5,-,N/A,,Unknown,140,2013-10-14 13:52:00
7:52 AM,37.0,28.9,73,30.33,-9999.0,Calm,Calm,-,N/A,,Unknown,0,2013-10-14 14:52:00
8:52 AM,39.0,28.9,67,30.34,-9999.0,Calm,Calm,-,N/A,,Unknown,0,2013-10-14 15:52:00
9:52 AM,45.0,30.0,56,30.33,-9999.0,West,4.6,-,N/A,,Unknown,280,2013-10-14 16:52:00
10:52 AM,48.9,28.9,46,30.33,-9999.0,Calm,Calm,-,N/A,,Unknown,0,2013-10-14 17:52:00
11:52 AM,48.9,28.9,46,30.32,-9999.0,Calm,Calm,-,N/A,,Unknown,0,2013-10-14 18:52:00
12:52 PM,52.0,27.0,38,30.30,-9999.0,Variable,6.9,-,N/A,,Unknown,0,2013-10-14 19:52:00
1:52 PM,53.1,28.0,38,30.28,-9999.0,Variable,3.5,-,N/A,,Unknown,0,2013-10-14 20:52:00
2:52 PM,55.9,27.0,33,30.27,-9999.0,NW,8.1,-,N/A,,Unknown,310,2013-10-14 21:52:00
3:52 PM,55.9,26.1,32,30.26,-9999.0,Calm,Calm,-,N/A,,Unknown,0,2013-10-14 22:52:00
4:52 PM,55.9,25.0,30,30.26,-9999.0,Calm,Calm,-,N/A,,Unknown,0,2013-10-14 23:52:00
5:52 PM,53.1,23.0,31,30.27,-9999.0,NNW,9.2,-,N/A,,Unknown,340,2013-10-15 00:52:00
6:52 PM,46.9,21.9,37,30.28,-9999.0,North,9.2,-,N/A,,Unknown,360,2013-10-15 01:52:00
7:52 PM,42.1,21.0,43,30.30,-9999.0,NNE,5.8,-,N/A,,Unknown,20,2013-10-15 02:52:00
8:52 PM,43.0,23.0,45,30.29,-9999.0,NE,4.6,-,N/A,,Unknown,50,2013-10-15 03:52:00
9:52 PM,37.9,21.9,53,30.30,-9999.0,ENE,6.9,-,N/A,,Unknown,60,2013-10-15 04:52:00
10:52 PM,39.9,23.0,51,30.30,-9999.0,Calm,Calm,-,N/A,,Unknown,0,2013-10-15 05:52:00
11:52 PM,35.1,21.9,59,30.31,-9999.0,NE,5.8,-,N/A,,Unknown,40,2013-10-15 06:52:00